This is the latest recevied weather packets stored in our database for station/object EA3KZ-1. If no packets are shown the sender has not sent any weather packets the latest 10 day(s).
| Time | Temp. | Humidity | Pressure | Rain* | Wind** | Luminosity | Snow |
|---|---|---|---|---|---|---|---|
| 1788002769 | 28.89° C | 38% | 1015.4 hPa | 0 mm | - | - | - |
| 1788002166 | 28.33° C | 39% | 1015.6 hPa | 0 mm | - | - | - |
| 1788001564 | 27.78° C | 38% | 1015.6 hPa | 0 mm | - | - | - |
| 1788000962 | 27.78° C | 39% | 1015.7 hPa | 0 mm | - | - | - |
| 1788000359 | 27.22° C | 40% | 1015.9 hPa | 0 mm | - | - | - |
| 1787999756 | 27.22° C | 39% | 1015.9 hPa | 0 mm | - | - | - |
| 1787999154 | 26.67° C | 40% | 1016 hPa | 0 mm | - | - | - |
| 1787998551 | 27.22° C | 40% | 1016 hPa | 0 mm | - | - | - |
| 1787997948 | 27.22° C | 40% | 1016.3 hPa | 0 mm | - | - | - |
| 1787997346 | 26.67° C | 40% | 1016.3 hPa | 0 mm | - | - | - |
| 1787996743 | 27.22° C | 40% | 1016.4 hPa | 0 mm | - | - | - |
| 1787996141 | 26.11° C | 42% | 1016.4 hPa | 0 mm | - | - | - |
| 1787995538 | 26.11° C | 42% | 1016.2 hPa | 0 mm | - | - | - |
| 1787994935 | 26.67° C | 42% | 1016.4 hPa | 0 mm | - | - | - |
| 1787994333 | 25.56° C | 44% | 1016.3 hPa | 0 mm | - | - | - |
| 1787993730 | 25.56° C | 44% | 1016.2 hPa | 0 mm | - | - | - |
| 1787993128 | 25° C | 42% | 1016.1 hPa | 0 mm | - | - | - |
| 1787992525 | 24.44° C | 44% | 1016.1 hPa | 0 mm | - | - | - |
| 1787991923 | 24.44° C | 47% | 1016 hPa | 0 mm | - | - | - |
| 1787991320 | 23.89° C | 49% | 1015.9 hPa | 0 mm | - | - | - |
| 1787990717 | 23.89° C | 47% | 1016 hPa | 0 mm | - | - | - |
| 1787990115 | 23.89° C | 47% | 1015.7 hPa | 0 mm | - | - | - |
| 1787989572 | 23.89° C | 48% | 1015.6 hPa | 0 mm | - | - | - |
| 1787988970 | 23.33° C | 49% | 1015.5 hPa | 0 mm | - | - | - |
| 1787988367 | 23.33° C | 49% | 1015.6 hPa | 0 mm | - | - | - |
* Rain latest hour (hover to see other rain measurements)
** Current wind speed in m/s (hover to see current wind gust speed)